Retour au catalogue

ELECTRON KICK STAGE R/B

ActifVLEO
NORAD 58579·ROCKET BODY·🇺🇸 United States

Lancé Dec 15, 2023 depuis Rocket Lab Launch Complex 1

Loading…

Prochains Passages (prochaines 24 heures)

TLE

FraisSource: Space-Track

Époque: Sep 14, 2026, 01:50 UTC

1 58579U 23196B   26257.07659798  .00004768  00000-0  26234-3 0  9993
2 58579  42.0182 262.3902 0018004 109.7304 250.5471 15.14803057151414

Suivez ELECTRON KICK STAGE R/B en temps réel avec AllMySat

Download on the App Store